| time (UTC) | temp F | wind direction | speed MPH | gust MPH | rain 1hr in | rain 24hr in | rain mn in | humidity % | barometer mb |
| 20260903190143 | 94 | 90 | 5.0 | 11.0 | 0.00 | 0.00 | 0.00 | 40 | 1013.9 |
| 20260903185122 | 92 | 136 | 7.0 | 13.0 | 0.00 | 0.00 | 0.00 | 42 | 1014.0 |
| 20260903184123 | 93 | 26 | 6.0 | 12.0 | 0.00 | 0.00 | 0.00 | 41 | 1014.4 |
| 20260903183123 | 93 | 28 | 5.0 | 11.0 | 0.00 | 0.00 | 0.00 | 41 | 1014.5 |
| 20260903182235 | 93 | 45 | 5.0 | 11.0 | 0.00 | 0.00 | 0.00 | 42 | 1014.7 |
| 20260903181144 | 92 | 359 | 6.0 | 12.0 | 0.00 | 0.00 | 0.00 | 45 | 1014.7 |
| 20260903180123 | 92 | 37 | 4.0 | 9.0 | 0.00 | 0.00 | 0.00 | 44 | 1014.9 |
| 20260903175123 | 90 | 8 | 6.0 | 12.0 | 0.00 | 0.00 | 0.00 | 48 | 1015.1 |
| 20260903174123 | 92 | 25 | 7.0 | 12.0 | 0.00 | 0.00 | 0.00 | 47 | 1015.1 |
| 20260903173124 | 91 | 360 | 9.0 | 9.0 | 0.00 | 0.00 | 0.00 | 46 | 1015.1 |
| 20260903172124 | 90 | 63 | 5.0 | 11.0 | 0.00 | 0.00 | 0.00 | 48 | 1015.1 |
| 20260903171123 | 91 | 86 | 4.0 | 9.0 | 0.00 | 0.00 | 0.00 | 47 | 1015.2 |
| 20260903170123 | 90 | 35 | 6.0 | 11.0 | 0.00 | 0.00 | 0.00 | 50 | 1015.2 |
| 20260903165144 | 90 | 49 | 8.0 | 14.0 | 0.00 | 0.00 | 0.00 | 50 | 1015.2 |
| 20260903164123 | 90 | 57 | 5.0 | 9.0 | 0.00 | 0.00 | 0.00 | 50 | 1015.3 |
| 20260903163124 | 89 | 52 | 5.0 | 13.0 | 0.00 | 0.00 | 0.00 | 51 | 1015.2 |
| 20260903162123 | 89 | 49 | 5.0 | 9.0 | 0.00 | 0.00 | 0.00 | 51 | 1015.1 |
| 20260903161124 | 89 | 68 | 5.0 | 11.0 | 0.00 | 0.00 | 0.00 | 52 | 1015.3 |
| 20260903160124 | 88 | 83 | 6.0 | 11.0 | 0.00 | 0.00 | 0.00 | 52 | 1015.3 |
| 20260903155144 | 87 | 9 | 5.0 | 6.0 | 0.00 | 0.00 | 0.00 | 54 | 1015.4 |
| 20260903154123 | 87 | 72 | 4.0 | 9.0 | 0.00 | 0.00 | 0.00 | 55 | 1015.3 |
| 20260903153123 | 87 | 52 | 5.0 | 10.0 | 0.00 | 0.00 | 0.00 | 55 | 1015.3 |
| 20260903152124 | 86 | 35 | 5.0 | 10.0 | 0.00 | 0.00 | 0.00 | 57 | 1015.3 |
| 20260903151123 | 86 | 70 | 5.0 | 8.0 | 0.00 | 0.00 | 0.00 | 58 | 1015.4 |
| 20260903150123 | 85 | 54 | 4.0 | 7.0 | 0.00 | 0.00 | 0.00 | 59 | 1015.3 |
| 20260903145144 | 85 | 86 | 5.0 | 9.0 | 0.00 | 0.00 | 0.00 | 59 | 1015.3 |
| 20260903144123 | 85 | 62 | 5.0 | 8.0 | 0.00 | 0.00 | 0.00 | 60 | 1015.4 |
| 20260903143123 | 84 | 99 | 5.0 | 8.0 | 0.00 | 0.00 | 0.00 | 62 | 1015.4 |
| 20260903142123 | 84 | 43 | 7.0 | 10.0 | 0.00 | 0.00 | 0.00 | 62 | 1015.3 |
| 20260903141123 | 84 | 46 | 5.0 | 9.0 | 0.00 | 0.00 | 0.00 | 62 | 1015.2 |
| 20260903140123 | 83 | 53 | 4.0 | 8.0 | 0.00 | 0.00 | 0.00 | 62 | 1015.2 |
| 20260903135123 | 83 | 55 | 4.0 | 6.0 | 0.00 | 0.00 | 0.00 | 63 | 1015.0 |
| 20260903134123 | 82 | 107 | 2.0 | 4.0 | 0.00 | 0.00 | 0.00 | 64 | 1014.8 |
| 20260903133124 | 82 | 84 | 3.0 | 6.0 | 0.00 | 0.00 | 0.00 | 64 | 1014.7 |
| 20260903132123 | 81 | 7 | 1.0 | 4.0 | 0.00 | 0.00 | 0.00 | 65 | 1014.6 |
| 20260903131124 | 81 | 360 | 2.0 | 2.0 | 0.00 | 0.00 | 0.00 | 64 | 1014.5 |
| 20260903130123 | 81 | 3 | 2.0 | 3.0 | 0.00 | 0.00 | 0.00 | 64 | 1014.4 |
| 20260903125123 | 82 | 4 | 2.0 | 4.0 | 0.00 | 0.00 | 0.00 | 63 | 1014.4 |
| 20260903124144 | 82 | 16 | 2.0 | 4.0 | 0.00 | 0.00 | 0.00 | 63 | 1014.3 |
| 20260903123124 | 82 | 77 | 2.0 | 5.0 | 0.00 | 0.00 | 0.00 | 63 | 1014.2 |
| 20260903122123 | 82 | 2 | 2.0 | 3.0 | 0.00 | 0.00 | 0.00 | 62 | 1014.0 |
| 20260903121124 | 82 | 9 | 2.0 | 4.0 | 0.00 | 0.00 | 0.00 | 63 | 1014.0 |
| 20260903120123 | 81 | 69 | 1.0 | 3.0 | 0.00 | 0.00 | 0.00 | 64 | 1013.9 |
| 20260903115123 | 81 | 360 | 0.0 | 0.0 | 0.00 | 0.00 | 0.00 | 63 | 1014.0 |
| 20260903114144 | 81 | 71 | 0.0 | 1.0 | 0.00 | 0.00 | 0.00 | 62 | 1013.9 |
| 20260903113123 | 81 | 14 | 1.0 | 3.0 | 0.00 | 0.00 | 0.00 | 62 | 1013.7 |
| 20260903112144 | 82 | 360 | 0.0 | 1.0 | 0.00 | 0.00 | 0.00 | 61 | 1013.6 |
| 20260903111144 | 83 | 88 | 1.0 | 5.0 | 0.00 | 0.00 | 0.00 | 60 | 1013.6 |
| 20260903110123 | 83 | 14 | 2.0 | 4.0 | 0.00 | 0.00 | 0.00 | 59 | 1013.5 |
| 20260903105123 | 83 | 31 | 2.0 | 5.0 | 0.00 | 0.00 | 0.00 | 58 | 1013.5 |
| 20260903104123 | 84 | 20 | 3.0 | 5.0 | 0.00 | 0.00 | 0.00 | 58 | 1013.5 |
| 20260903103144 | 84 | 30 | 4.0 | 10.0 | 0.00 | 0.00 | 0.00 | 57 | 1013.6 |
| 20260903102144 | 84 | 44 | 4.0 | 7.0 | 0.00 | 0.00 | 0.00 | 57 | 1013.7 |
| 20260903101123 | 84 | 29 | 4.0 | 6.0 | 0.00 | 0.00 | 0.00 | 56 | 1013.7 |
| 20260903100123 | 84 | 71 | 4.0 | 8.0 | 0.00 | 0.00 | 0.00 | 56 | 1013.7 |
| 20260903095123 | 85 | 64 | 5.0 | 9.0 | 0.00 | 0.00 | 0.00 | 55 | 1013.6 |
| 20260903094123 | 85 | 48 | 5.0 | 9.0 | 0.00 | 0.00 | 0.00 | 54 | 1013.6 |
| 20260903093124 | 85 | 59 | 5.0 | 9.0 | 0.00 | 0.00 | 0.00 | 53 | 1013.7 |
| 20260903092124 | 85 | 77 | 5.0 | 9.0 | 0.00 | 0.00 | 0.00 | 53 | 1013.6 |
| 20260903091123 | 85 | 40 | 4.0 | 7.0 | 0.00 | 0.00 | 0.00 | 53 | 1013.6 |
| 20260903090123 | 85 | 83 | 4.0 | 7.0 | 0.00 | 0.00 | 0.00 | 53 | 1013.5 |
| 20260903085123 | 85 | 73 | 4.0 | 8.0 | 0.00 | 0.00 | 0.00 | 53 | 1013.5 |
| 20260903084123 | 86 | 106 | 4.0 | 7.0 | 0.00 | 0.00 | 0.00 | 53 | 1013.7 |
| 20260903083144 | 86 | 126 | 2.0 | 4.0 | 0.00 | 0.00 | 0.00 | 51 | 1013.7 |
| 20260903082123 | 85 | 330 | 3.0 | 5.0 | 0.00 | 0.00 | 0.00 | 50 | 1013.8 |
| 20260903081123 | 85 | 319 | 2.0 | 3.0 | 0.00 | 0.00 | 0.00 | 50 | 1013.7 |
| 20260903080123 | 85 | 360 | 0.0 | 0.0 | 0.00 | 0.00 | 0.00 | 49 | 1013.7 |
| 20260903075123 | 85 | 360 | 0.0 | 0.0 | 0.00 | 0.00 | 0.00 | 49 | 1013.6 |
| 20260903074123 | 85 | 360 | 0.0 | 0.0 | 0.00 | 0.00 | 0.00 | 48 | 1013.6 |
| 20260903073123 | 85 | 360 | 0.0 | 0.0 | 0.00 | 0.00 | 0.00 | 48 | 1013.5 |
| 20260903072123 | 85 | 360 | 2.0 | 2.0 | 0.00 | 0.00 | 0.00 | 48 | 1013.6 |
| 20260903071123 | 85 | 355 | 2.0 | 2.0 | 0.00 | 0.00 | 0.00 | 48 | 1013.4 |
| 20260903070145 | 86 | 312 | 0.0 | 2.0 | 0.00 | 0.00 | 0.00 | 46 | 1013.4 |
| 20260903065145 | 87 | 311 | 0.0 | 3.0 | 0.00 | 0.00 | 0.00 | 43 | 1013.4 |
| 20260903064124 | 87 | 312 | 0.0 | 0.0 | 0.00 | 0.00 | 0.00 | 44 | 1013.2 |
| 20260903063123 | 88 | 334 | 0.0 | 1.0 | 0.00 | 0.00 | 0.00 | 43 | 1013.3 |
| 20260903062123 | 88 | 322 | 1.0 | 3.0 | 0.00 | 0.00 | 0.00 | 43 | 1013.4 |
| 20260903061122 | 88 | 315 | 1.0 | 2.0 | 0.00 | 0.00 | 0.00 | 43 | 1013.3 |
| 20260903060124 | 89 | 316 | 0.0 | 1.0 | 0.00 | 0.00 | 0.00 | 41 | 1013.2 |
| 20260903055123 | 90 | 316 | 1.0 | 2.0 | 0.00 | 0.00 | 0.00 | 40 | 1013.2 |
| 20260903054122 | 90 | 318 | 2.0 | 3.0 | 0.00 | 0.00 | 0.00 | 39 | 1013.2 |
| 20260903053123 | 90 | 317 | 2.0 | 4.0 | 0.00 | 0.00 | 0.00 | 38 | 1013.3 |
| 20260903052144 | 90 | 323 | 2.0 | 3.0 | 0.00 | 0.00 | 0.00 | 38 | 1013.3 |
| 20260903051122 | 90 | 323 | 1.0 | 3.0 | 0.00 | 0.00 | 0.00 | 38 | 1013.4 |
| 20260903050122 | 90 | 347 | 2.0 | 3.0 | 0.00 | 0.00 | 0.00 | 38 | 1013.4 |
| 20260903045122 | 91 | 319 | 1.0 | 2.0 | 0.00 | 0.00 | 0.00 | 39 | 1013.4 |
| 20260903044122 | 91 | 330 | 2.0 | 3.0 | 0.00 | 0.00 | 0.00 | 37 | 1013.3 |
| 20260903043122 | 91 | 348 | 2.0 | 3.0 | 0.00 | 0.00 | 0.00 | 37 | 1013.2 |
| 20260903042123 | 92 | 314 | 2.0 | 3.0 | 0.00 | 0.00 | 0.00 | 36 | 1013.3 |
| 20260903041145 | 92 | 314 | 2.0 | 3.0 | 0.00 | 0.00 | 0.00 | 36 | 1013.3 |
| 20260903040123 | 92 | 317 | 2.0 | 3.0 | 0.00 | 0.00 | 0.00 | 35 | 1013.2 |
| 20260903035123 | 92 | 316 | 1.0 | 3.0 | 0.00 | 0.00 | 0.00 | 35 | 1013.1 |
| 20260903034123 | 93 | 317 | 2.0 | 4.0 | 0.00 | 0.00 | 0.00 | 35 | 1013.0 |
| 20260903033124 | 93 | 336 | 3.0 | 4.0 | 0.00 | 0.00 | 0.00 | 35 | 1012.9 |
| 20260903032122 | 93 | 318 | 2.0 | 4.0 | 0.00 | 0.00 | 0.00 | 35 | 1012.8 |
| 20260903031122 | 94 | 328 | 4.0 | 8.0 | 0.00 | 0.00 | 0.00 | 34 | 1012.7 |
| 20260903030122 | 94 | 320 | 3.0 | 6.0 | 0.00 | 0.00 | 0.00 | 34 | 1012.6 |
| 20260903025122 | 94 | 322 | 3.0 | 5.0 | 0.00 | 0.00 | 0.00 | 34 | 1012.5 |
| 20260903024122 | 95 | 323 | 4.0 | 5.0 | 0.00 | 0.00 | 0.00 | 33 | 1012.4 |
| 20260903023123 | 95 | 342 | 5.0 | 8.0 | 0.00 | 0.00 | 0.00 | 33 | 1012.4 |
| 20260903022122 | 95 | 344 | 4.0 | 8.0 | 0.00 | 0.00 | 0.00 | 33 | 1012.3 |
| 20260903021122 | 96 | 342 | 4.0 | 6.0 | 0.00 | 0.00 | 0.00 | 32 | 1012.3 |
| 20260903020123 | 96 | 337 | 5.0 | 9.0 | 0.00 | 0.00 | 0.00 | 32 | 1012.0 |
| 20260903015122 | 96 | 346 | 6.0 | 9.0 | 0.00 | 0.00 | 0.00 | 31 | 1012.1 |
| 20260903014122 | 97 | 343 | 5.0 | 9.0 | 0.00 | 0.00 | 0.00 | 30 | 1011.9 |
| 20260903013143 | 97 | 346 | 6.0 | 9.0 | 0.00 | 0.00 | 0.00 | 30 | 1011.8 |
| 20260903012145 | 97 | 328 | 4.0 | 7.0 | 0.00 | 0.00 | 0.00 | 30 | 1011.9 |
| 20260903011143 | 98 | 325 | 7.0 | 9.0 | 0.00 | 0.00 | 0.00 | 29 | 1011.9 |
| 20260903010123 | 98 | 284 | 3.0 | 8.0 | 0.00 | 0.00 | 0.00 | 28 | 1011.9 |
| 20260903005122 | 98 | 356 | 5.0 | 9.0 | 0.00 | 0.00 | 0.00 | 28 | 1012.0 |
| 20260903004122 | 98 | 348 | 9.0 | 13.0 | 0.00 | 0.00 | 0.00 | 28 | 1012.0 |
| 20260903003124 | 98 | 324 | 5.0 | 11.0 | 0.00 | 0.00 | 0.00 | 28 | 1012.0 |
| 20260903002122 | 98 | 322 | 4.0 | 7.0 | 0.00 | 0.00 | 0.00 | 27 | 1012.1 |
| 20260903001123 | 98 | 351 | 4.0 | 11.0 | 0.00 | 0.00 | 0.00 | 28 | 1012.1 |
| 20260903000143 | 99 | 325 | 7.0 | 13.0 | 0.00 | 0.00 | 0.00 | 27 | 1011.9 |
| 20260902235123 | 100 | 324 | 6.0 | 12.0 | 0.00 | 0.00 | 0.00 | 27 | 1012.2 |
| 20260902234122 | 99 | 357 | 6.0 | 12.0 | 0.00 | 0.00 | 0.00 | 27 | 1012.3 |
| 20260902233143 | 99 | 1 | 3.0 | 9.0 | 0.00 | 0.00 | 0.00 | 28 | 1012.5 |
| 20260902232122 | 100 | 340 | 10.0 | 15.0 | 0.00 | 0.00 | 0.00 | 27 | 1012.5 |
| 20260902231123 | 99 | 327 | 5.0 | 12.0 | 0.00 | 0.00 | 0.00 | 28 | 1012.6 |
| 20260902230122 | 99 | 346 | 10.0 | 15.0 | 0.00 | 0.00 | 0.00 | 28 | 1012.7 |
| 20260902225124 | 99 | 304 | 5.0 | 9.0 | 0.00 | 0.00 | 0.00 | 28 | 1012.9 |
| 20260902224122 | 99 | 320 | 8.0 | 13.0 | 0.00 | 0.00 | 0.00 | 28 | 1013.1 |
| 20260902223123 | 99 | 305 | 6.0 | 11.0 | 0.00 | 0.00 | 0.00 | 28 | 1013.2 |
| 20260902222123 | 99 | 327 | 8.0 | 14.0 | 0.00 | 0.00 | 0.00 | 28 | 1013.4 |
| 20260902221123 | 100 | 312 | 7.0 | 11.0 | 0.00 | 0.00 | 0.00 | 29 | 1013.4 |
| 20260902220122 | 98 | 237 | 2.0 | 5.0 | 0.00 | 0.00 | 0.00 | 31 | 1013.6 |
| 20260902215143 | 99 | 308 | 9.0 | 15.0 | 0.00 | 0.00 | 0.00 | 30 | 1013.6 |
| 20260902214122 | 98 | 329 | 6.0 | 17.0 | 0.00 | 0.00 | 0.00 | 30 | 1013.7 |
| 20260902213122 | 98 | 329 | 8.0 | 15.0 | 0.00 | 0.00 | 0.00 | 31 | 1013.9 |
| 20260902212143 | 98 | 344 | 12.0 | 16.0 | 0.00 | 0.00 | 0.00 | 31 | 1014.0 |
| 20260902211143 | 99 | 317 | 10.0 | 14.0 | 0.00 | 0.00 | 0.00 | 31 | 1014.1 |
| 20260902210122 | 96 | 255 | 5.0 | 12.0 | 0.00 | 0.00 | 0.00 | 34 | 1014.1 |
| 20260902205143 | 98 | 291 | 8.0 | 12.0 | 0.00 | 0.00 | 0.00 | 32 | 1014.3 |
| 20260902204122 | 98 | 319 | 7.0 | 13.0 | 0.00 | 0.00 | 0.00 | 33 | 1014.5 |
| 20260902203122 | 98 | 326 | 8.0 | 12.0 | 0.00 | 0.00 | 0.00 | 33 | 1014.6 |
| 20260902202122 | 97 | 300 | 8.0 | 14.0 | 0.00 | 0.00 | 0.00 | 34 | 1014.8 |
| 20260902201122 | 96 | 321 | 7.0 | 14.0 | 0.00 | 0.00 | 0.00 | 37 | 1015.0 |
| 20260902200122 | 96 | 314 | 7.0 | 13.0 | 0.00 | 0.00 | 0.00 | 37 | 1015.2 |
| 20260902195122 | 96 | 348 | 8.0 | 15.0 | 0.00 | 0.00 | 0.00 | 39 | 1015.3 |
| 20260902194123 | 97 | 37 | 10.0 | 13.0 | 0.00 | 0.00 | 0.00 | 38 | 1015.4 |
| 20260902193123 | 96 | 309 | 4.0 | 12.0 | 0.00 | 0.00 | 0.00 | 39 | 1015.5 |
| 20260902192122 | 95 | 306 | 6.0 | 11.0 | 0.00 | 0.00 | 0.00 | 39 | 1015.7 |
| 20260902191122 | 95 | 321 | 5.0 | 14.0 | 0.00 | 0.00 | 0.00 | 41 | 1015.7 |